Time,TemperatureF,DewpointF,PressureIn,WindDirection,WindDirectionDegrees,WindSpeedMPH,WindSpeedGustMPH,Humidity,HourlyPrecipIn,Conditions,Clouds,dailyrainin,SoftwareType,DateUTC
2013-04-02 00:03:00,62.2,21.8,29.85,WSW,238,2.0,6.0,21,0.00,,SKC,0.00,VWS V14.01,2013-04-02 07:03:00,
2013-04-02 00:08:00,61.8,21.5,29.85,SW,233,4.0,6.0,21,0.00,,SKC,0.00,VWS V14.01,2013-04-02 07:08:00,
2013-04-02 00:13:00,61.4,22.2,29.84,SSW,211,1.0,6.0,22,0.00,,SKC,0.00,VWS V14.01,2013-04-02 07:13:00,
2013-04-02 00:18:00,61.1,22.0,29.84,SW,232,2.0,6.0,22,0.00,,SKC,0.00,VWS V14.01,2013-04-02 07:18:00,
2013-04-02 00:23:00,60.9,21.8,29.84,SW,236,4.0,6.0,22,0.00,,SKC,0.00,VWS V14.01,2013-04-02 07:23:00,
2013-04-02 00:28:00,60.9,21.8,29.85,WSW,239,7.0,7.0,22,0.00,,SKC,0.00,VWS V14.01,2013-04-02 07:28:00,
2013-04-02 00:33:00,61.0,20.8,29.85,WSW,249,7.0,8.0,21,0.00,,SKC,0.00,VWS V14.01,2013-04-02 07:33:00,
2013-04-02 00:38:00,61.3,21.1,29.85,SW,219,8.0,8.0,21,0.00,,SKC,0.00,VWS V14.01,2013-04-02 07:38:00,
2013-04-02 00:43:00,61.3,21.1,29.85,WSW,243,3.0,8.0,21,0.00,,SKC,0.00,VWS V14.01,2013-04-02 07:43:00,
2013-04-02 00:48:00,60.3,21.3,29.85,WSW,242,2.0,8.0,22,0.00,,SKC,0.00,VWS V14.01,2013-04-02 07:48:00,
2013-04-02 00:54:00,59.3,21.5,29.85,WSW,242,1.0,8.0,23,0.00,,SKC,0.00,VWS V14.01,2013-04-02 07:54:00,
2013-04-02 00:59:00,58.5,20.9,29.85,WSW,239,2.0,8.0,23,0.00,,SKC,0.00,VWS V14.01,2013-04-02 07:59:00,
2013-04-02 01:04:00,57.9,21.4,29.85,WSW,249,3.0,4.0,24,0.00,,SKC,0.00,VWS V14.01,2013-04-02 08:04:00,
2013-04-02 01:09:00,57.5,21.0,29.85,SW,227,0.0,4.0,24,0.00,,SKC,0.00,VWS V14.01,2013-04-02 08:09:00,
2013-04-02 01:14:00,56.8,21.4,29.85,WSW,253,1.0,4.0,25,0.00,,SKC,0.00,VWS V14.01,2013-04-02 08:14:00,
2013-04-02 01:20:00,56.1,20.8,29.85,WNW,285,3.0,4.0,25,0.00,,SKC,0.00,VWS V14.01,2013-04-02 08:20:00,
2013-04-02 01:25:00,55.5,21.2,29.85,WNW,284,1.0,4.0,26,0.00,,SKC,0.00,VWS V14.01,2013-04-02 08:25:00,
2013-04-02 01:30:00,54.6,21.3,29.84,WNW,284,1.0,1.0,27,0.00,,SKC,0.00,VWS V14.01,2013-04-02 08:30:00,
2013-04-02 01:35:00,54.1,21.7,29.84,West,281,1.0,1.0,28,0.00,,SKC,0.00,VWS V14.01,2013-04-02 08:35:00,
2013-04-02 01:40:00,54.2,21.0,29.84,WSW,255,1.0,2.0,27,0.00,,SKC,0.00,VWS V14.01,2013-04-02 08:40:00,
2013-04-02 01:45:00,54.0,21.6,29.84,WSW,256,1.0,2.0,28,0.00,,SKC,0.00,VWS V14.01,2013-04-02 08:45:00,
2013-04-02 01:50:00,53.7,21.4,29.84,West,277,1.0,2.0,28,0.00,,SKC,0.00,VWS V14.01,2013-04-02 08:50:00,
2013-04-02 01:55:00,53.6,21.3,29.84,West,278,1.0,2.0,28,0.00,,SKC,0.00,VWS V14.01,2013-04-02 08:55:00,
2013-04-02 02:00:00,53.7,21.4,29.84,WNW,285,0.0,0.0,28,0.00,,SKC,0.00,VWS V14.01,2013-04-02 09:00:00,
2013-04-02 02:05:00,53.0,20.8,29.84,WNW,285,0.0,1.0,28,0.00,,SKC,0.00,VWS V14.01,2013-04-02 09:05:00,
2013-04-02 02:11:00,52.4,21.1,29.83,WNW,285,0.0,1.0,29,0.00,,SKC,0.00,VWS V14.01,2013-04-02 09:11:00,
2013-04-02 02:16:00,51.2,21.6,29.83,WNW,287,1.0,1.0,31,0.00,,SKC,0.00,VWS V14.01,2013-04-02 09:16:00,
2013-04-02 02:21:00,50.0,24.8,29.83,WNW,286,0.0,1.0,37,0.00,,SKC,0.00,VWS V14.01,2013-04-02 09:21:00,
2013-04-02 02:27:00,49.2,24.7,29.83,WNW,287,0.0,1.0,38,0.00,,SKC,0.00,VWS V14.01,2013-04-02 09:27:00,
2013-04-02 02:32:00,48.6,24.8,29.83,WNW,286,0.0,0.0,39,0.00,,SKC,0.00,VWS V14.01,2013-04-02 09:32:00,
2013-04-02 02:37:00,48.1,24.9,29.83,WNW,287,0.0,0.0,40,0.00,,SKC,0.00,VWS V14.01,2013-04-02 09:37:00,
2013-04-02 02:42:00,47.6,23.3,29.83,WNW,287,0.0,0.0,38,0.00,,SKC,0.00,VWS V14.01,2013-04-02 09:42:00,
2013-04-02 02:47:00,47.4,23.1,29.83,NE,37,0.0,1.0,38,0.00,,SKC,0.00,VWS V14.01,2013-04-02 09:47:00,
2013-04-02 02:52:00,46.8,21.9,29.83,NE,37,0.0,1.0,37,0.00,,SKC,0.00,VWS V14.01,2013-04-02 09:52:00,
2013-04-02 02:57:00,46.8,22.5,29.83,NNE,23,1.0,2.0,38,0.00,,SKC,0.00,VWS V14.01,2013-04-02 09:57:00,
2013-04-02 03:02:00,46.3,22.7,29.83,NNW,337,1.0,2.0,39,0.00,,SKC,0.00,VWS V14.01,2013-04-02 10:02:00,
2013-04-02 03:08:00,46.2,23.2,29.83,NW,314,1.0,2.0,40,0.00,,SKC,0.00,VWS V14.01,2013-04-02 10:08:00,
2013-04-02 03:13:00,46.1,23.1,29.84,NW,315,0.0,2.0,40,0.00,,SKC,0.00,VWS V14.01,2013-04-02 10:13:00,
2013-04-02 03:18:00,45.6,23.3,29.83,NW,312,1.0,2.0,41,0.00,,SKC,0.00,VWS V14.01,2013-04-02 10:18:00,
2013-04-02 03:23:00,45.3,24.1,29.84,NW,307,1.0,2.0,43,0.00,,SKC,0.00,VWS V14.01,2013-04-02 10:23:00,
2013-04-02 03:28:00,45.1,24.0,29.84,NW,307,0.0,2.0,43,0.00,,SKC,0.00,VWS V14.01,2013-04-02 10:28:00,
2013-04-02 03:33:00,44.5,24.0,29.84,NW,306,0.0,0.0,44,0.00,,SKC,0.00,VWS V14.01,2013-04-02 10:33:00,
2013-04-02 03:38:00,43.9,23.4,29.84,NW,306,0.0,1.0,44,0.00,,SKC,0.00,VWS V14.01,2013-04-02 10:38:00,
2013-04-02 03:44:00,43.5,23.0,29.84,NW,307,0.0,1.0,44,0.00,,SKC,0.00,VWS V14.01,2013-04-02 10:44:00,
2013-04-02 03:49:00,42.9,22.5,29.85,NW,307,0.0,1.0,44,0.00,,SKC,0.00,VWS V14.01,2013-04-02 10:49:00,
2013-04-02 03:54:00,42.4,21.5,29.85,NW,306,0.0,1.0,43,0.00,,SKC,0.00,VWS V14.01,2013-04-02 10:54:00,
2013-04-02 03:59:00,41.8,20.4,29.85,NW,307,0.0,1.0,42,0.00,,SKC,0.00,VWS V14.01,2013-04-02 10:59:00,
2013-04-02 04:04:00,41.4,20.0,29.85,NW,306,0.0,1.0,42,0.00,,SKC,0.00,VWS V14.01,2013-04-02 11:04:00,
2013-04-02 04:09:00,41.2,21.0,29.85,NW,306,0.0,1.0,44,0.00,,SKC,0.00,VWS V14.01,2013-04-02 11:09:00,
2013-04-02 04:14:00,41.1,20.9,29.85,NW,307,0.0,1.0,44,0.00,,SKC,0.00,VWS V14.01,2013-04-02 11:14:00,
2013-04-02 04:19:00,41.0,21.8,29.85,NW,306,0.0,1.0,46,0.00,,SKC,0.00,VWS V14.01,2013-04-02 11:19:00,
2013-04-02 04:24:00,41.6,21.9,29.85,NW,307,0.0,1.0,45,0.00,,SKC,0.00,VWS V14.01,2013-04-02 11:24:00,
2013-04-02 04:30:00,41.6,23.4,29.85,NW,306,1.0,1.0,48,0.00,,SKC,0.00,VWS V14.01,2013-04-02 11:30:00,
2013-04-02 04:35:00,40.9,23.2,29.85,NW,306,1.0,1.0,49,0.00,,SKC,0.00,VWS V14.01,2013-04-02 11:35:00,
2013-04-02 04:40:00,40.7,24.5,29.85,NW,306,0.0,1.0,52,0.00,,SKC,0.00,VWS V14.01,2013-04-02 11:40:00,
2013-04-02 04:45:00,40.6,23.4,29.85,NW,307,0.0,1.0,50,0.00,,SKC,0.00,VWS V14.01,2013-04-02 11:45:00,
2013-04-02 04:50:00,40.9,21.7,29.85,North,1,1.0,2.0,46,0.00,,SKC,0.00,VWS V14.01,2013-04-02 11:50:00,
2013-04-02 04:55:00,41.5,21.8,29.85,NE,46,4.0,4.0,45,0.00,,SKC,0.00,VWS V14.01,2013-04-02 11:55:00,
2013-04-02 05:00:00,41.5,21.8,29.85,NE,47,0.0,0.0,45,0.00,,SKC,0.00,VWS V14.01,2013-04-02 12:00:00,
2013-04-02 05:05:00,41.5,21.8,29.85,North,5,3.0,3.0,45,0.00,,SKC,0.00,VWS V14.01,2013-04-02 12:05:00,
2013-04-02 05:10:00,41.4,21.1,29.85,NNE,17,1.0,3.0,44,0.00,,SKC,0.00,VWS V14.01,2013-04-02 12:10:00,
2013-04-02 05:15:00,41.3,21.0,29.86,NNW,347,1.0,3.0,44,0.00,,SKC,0.00,VWS V14.01,2013-04-02 12:15:00,
2013-04-02 05:21:00,41.0,20.8,29.86,North,349,3.0,3.0,44,0.00,,SKC,0.00,VWS V14.01,2013-04-02 12:21:00,
2013-04-02 05:26:00,40.7,21.0,29.86,NNW,347,2.0,3.0,45,0.00,,SKC,0.00,VWS V14.01,2013-04-02 12:26:00,
2013-04-02 05:31:00,40.4,20.8,29.85,NNW,345,3.0,3.0,45,0.00,,SKC,0.00,VWS V14.01,2013-04-02 12:31:00,
2013-04-02 05:37:00,40.6,20.4,29.85,NNW,340,2.0,4.0,44,0.00,,SKC,0.00,VWS V14.01,2013-04-02 12:37:00,
2013-04-02 05:42:00,40.9,20.7,29.85,NNW,345,2.0,4.0,44,0.00,,SKC,0.00,VWS V14.01,2013-04-02 12:42:00,
2013-04-02 05:47:00,40.7,20.5,29.85,North,355,2.0,4.0,44,0.00,,SKC,0.00,VWS V14.01,2013-04-02 12:47:00,
2013-04-02 05:52:00,40.9,21.2,29.85,NNW,347,3.0,4.0,45,0.00,,SKC,0.00,VWS V14.01,2013-04-02 12:52:00,
2013-04-02 05:57:00,41.0,20.8,29.85,NNW,338,3.0,4.0,44,0.00,,SKC,0.00,VWS V14.01,2013-04-02 12:57:00,
2013-04-02 06:02:00,40.9,20.7,29.86,North,4,1.0,3.0,44,0.00,,SKC,0.00,VWS V14.01,2013-04-02 13:02:00,
2013-04-02 06:07:00,40.9,21.2,29.86,NNW,347,3.0,3.0,45,0.00,,SKC,0.00,VWS V14.01,2013-04-02 13:07:00,
2013-04-02 06:13:00,40.8,21.1,29.86,North,10,1.0,3.0,45,0.00,,SKC,0.00,VWS V14.01,2013-04-02 13:13:00,
2013-04-02 06:18:00,40.6,20.9,29.86,North,11,1.0,3.0,45,0.00,,SKC,0.00,VWS V14.01,2013-04-02 13:18:00,
2013-04-02 06:23:00,40.6,20.9,29.86,North,354,2.0,3.0,45,0.00,,SKC,0.00,VWS V14.01,2013-04-02 13:23:00,
2013-04-02 06:28:00,40.7,21.0,29.86,NNW,348,1.0,3.0,45,0.00,,SKC,0.00,VWS V14.01,2013-04-02 13:28:00,
2013-04-02 06:33:00,41.0,21.3,29.87,NNW,337,2.0,3.0,45,0.00,,SKC,0.00,VWS V14.01,2013-04-02 13:33:00,
2013-04-02 06:38:00,41.4,21.7,29.86,NNW,341,3.0,3.0,45,0.00,,SKC,0.00,VWS V14.01,2013-04-02 13:38:00,
2013-04-02 06:43:00,41.8,21.5,29.86,NNW,347,1.0,3.0,44,0.00,,SKC,0.00,VWS V14.01,2013-04-02 13:43:00,
2013-04-02 06:48:00,42.8,21.3,29.87,North,355,2.0,3.0,42,0.00,,SKC,0.00,VWS V14.01,2013-04-02 13:48:00,
2013-04-02 06:53:00,43.9,21.7,29.86,North,349,2.0,3.0,41,0.00,,SKC,0.00,VWS V14.01,2013-04-02 13:53:00,
2013-04-02 06:58:00,44.7,21.9,29.87,NNW,342,2.0,3.0,40,0.00,,SKC,0.00,VWS V14.01,2013-04-02 13:58:00,
2013-04-02 07:04:00,45.3,21.8,29.87,North,359,3.0,3.0,39,0.00,,SKC,0.00,VWS V14.01,2013-04-02 14:04:00,
2013-04-02 07:09:00,45.7,21.6,29.87,North,355,2.0,3.0,38,0.00,,SKC,0.00,VWS V14.01,2013-04-02 14:09:00,
2013-04-02 07:14:00,46.3,21.5,29.87,NNE,12,2.0,4.0,37,0.00,,SKC,0.00,VWS V14.01,2013-04-02 14:14:00,
2013-04-02 07:19:00,46.9,22.0,29.87,ENE,57,2.0,4.0,37,0.00,,SKC,0.00,VWS V14.01,2013-04-02 14:19:00,
2013-04-02 07:24:00,47.1,21.5,29.87,North,350,2.0,4.0,36,0.00,,SKC,0.00,VWS V14.01,2013-04-02 14:24:00,
2013-04-02 07:29:00,47.2,21.6,29.87,North,353,2.0,4.0,36,0.00,,SKC,0.00,VWS V14.01,2013-04-02 14:29:00,
2013-04-02 07:34:00,47.8,21.5,29.87,North,353,2.0,3.0,35,0.00,,SKC,0.00,VWS V14.01,2013-04-02 14:34:00,
2013-04-02 07:39:00,48.6,22.2,29.88,North,3,2.0,3.0,35,0.00,,SKC,0.00,VWS V14.01,2013-04-02 14:39:00,
2013-04-02 07:44:00,49.4,22.2,29.87,NE,38,1.0,4.0,34,0.00,,SKC,0.00,VWS V14.01,2013-04-02 14:44:00,
2013-04-02 07:49:00,50.4,22.4,29.87,North,352,2.0,4.0,33,0.00,,SKC,0.00,VWS V14.01,2013-04-02 14:49:00,
2013-04-02 07:54:00,51.0,22.2,29.88,NE,37,2.0,4.0,32,0.00,,SKC,0.00,VWS V14.01,2013-04-02 14:54:00,
2013-04-02 07:59:00,52.0,22.3,29.88,NE,44,2.0,4.0,31,0.00,,SKC,0.00,VWS V14.01,2013-04-02 14:59:00,
2013-04-02 08:04:00,52.8,23.0,29.88,ENE,57,3.0,3.0,31,0.00,,SKC,0.00,VWS V14.01,2013-04-02 15:04:00,
2013-04-02 08:09:00,53.7,22.2,29.88,North,4,0.0,3.0,29,0.00,,SKC,0.00,VWS V14.01,2013-04-02 15:09:00,
2013-04-02 08:15:00,54.6,23.0,29.88,NNW,340,1.0,3.0,29,0.00,,SKC,0.00,VWS V14.01,2013-04-02 15:15:00,
2013-04-02 08:20:00,55.3,23.6,29.88,NE,49,0.0,3.0,29,0.00,,SKC,0.00,VWS V14.01,2013-04-02 15:20:00,
2013-04-02 08:25:00,56.5,22.9,29.88,NE,47,0.0,3.0,27,0.00,,SKC,0.00,VWS V14.01,2013-04-02 15:25:00,
2013-04-02 08:30:00,58.0,23.3,29.88,ESE,114,2.0,3.0,26,0.00,,SKC,0.00,VWS V14.01,2013-04-02 15:30:00,
2013-04-02 08:35:00,59.1,23.3,29.87,East,81,1.0,2.0,25,0.00,,SKC,0.00,VWS V14.01,2013-04-02 15:35:00,
2013-04-02 08:40:00,59.6,22.8,29.87,NNE,15,1.0,2.0,24,0.00,,SKC,0.00,VWS V14.01,2013-04-02 15:40:00,
2013-04-02 08:46:00,60.1,23.2,29.87,NE,51,0.0,2.0,24,0.00,,SKC,0.00,VWS V14.01,2013-04-02 15:46:00,
2013-04-02 08:51:00,61.8,23.6,29.88,NE,37,1.0,2.0,23,0.00,,SKC,0.00,VWS V14.01,2013-04-02 15:51:00,
2013-04-02 08:57:00,63.0,23.6,29.88,ENE,61,2.0,2.0,22,0.00,,SKC,0.00,VWS V14.01,2013-04-02 15:57:00,
2013-04-02 09:02:00,64.1,23.4,29.88,ENE,61,0.0,0.0,21,0.00,,SKC,0.00,VWS V14.01,2013-04-02 16:02:00,
2013-04-02 09:08:00,64.3,21.2,29.88,SSW,199,4.0,5.0,19,0.00,,SKC,0.00,VWS V14.01,2013-04-02 16:08:00,
2013-04-02 09:13:00,63.3,22.7,29.88,SW,214,2.0,5.0,21,0.00,,SKC,0.00,VWS V14.01,2013-04-02 16:13:00,
2013-04-02 09:18:00,63.5,22.9,29.88,SW,214,3.0,7.0,21,0.00,,SKC,0.00,VWS V14.01,2013-04-02 16:18:00,
2013-04-02 09:23:00,64.0,23.3,29.88,WSW,243,5.0,9.0,21,0.00,,SKC,0.00,VWS V14.01,2013-04-02 16:23:00,
2013-04-02 09:28:00,64.1,22.2,29.88,SW,233,6.0,10.0,20,0.00,,SKC,0.00,VWS V14.01,2013-04-02 16:28:00,
2013-04-02 09:34:00,64.1,22.2,29.88,SSW,198,5.0,8.0,20,0.00,,SKC,0.00,VWS V14.01,2013-04-02 16:34:00,
2013-04-02 09:39:00,64.4,22.5,29.88,SSW,207,3.0,8.0,20,0.00,,SKC,0.00,VWS V14.01,2013-04-02 16:39:00,
2013-04-02 09:45:00,65.0,24.1,29.87,West,266,4.0,8.0,21,0.00,,SKC,0.00,VWS V14.01,2013-04-02 16:45:00,
2013-04-02 09:50:00,65.7,23.6,29.87,SW,229,3.0,8.0,20,0.00,,SKC,0.00,VWS V14.01,2013-04-02 16:50:00,
2013-04-02 09:55:00,65.8,23.6,29.87,South,179,4.0,8.0,20,0.00,,SKC,0.00,VWS V14.01,2013-04-02 16:55:00,
2013-04-02 10:00:00,66.8,22.0,29.87,SSW,195,6.0,11.0,18,0.00,,SKC,0.00,VWS V14.01,2013-04-02 17:00:00,
2013-04-02 10:07:00,66.9,22.0,29.87,SSW,200,10.0,12.0,18,0.00,,SKC,0.00,VWS V14.01,2013-04-02 17:07:00,
2013-04-02 10:12:00,66.6,21.8,29.87,SW,214,16.0,16.0,18,0.00,,SKC,0.00,VWS V14.01,2013-04-02 17:12:00,
2013-04-02 10:17:00,66.9,22.0,29.87,SE,146,8.0,16.0,18,0.00,,SKC,0.00,VWS V14.01,2013-04-02 17:17:00,
2013-04-02 10:22:00,67.5,22.5,29.87,SSE,166,7.0,16.0,18,0.00,,SKC,0.00,VWS V14.01,2013-04-02 17:22:00,
2013-04-02 10:28:00,67.6,22.6,29.87,SSW,198,3.0,16.0,18,0.00,,SKC,0.00,VWS V14.01,2013-04-02 17:28:00,
2013-04-02 10:33:00,67.6,22.6,29.87,SW,225,8.0,11.0,18,0.00,,SKC,0.00,VWS V14.01,2013-04-02 17:33:00,
2013-04-02 10:38:00,67.5,19.8,29.86,South,179,7.0,11.0,16,0.00,,SKC,0.00,VWS V14.01,2013-04-02 17:38:00,
2013-04-02 10:43:00,67.8,21.4,29.86,SSW,205,5.0,12.0,17,0.00,,SKC,0.00,VWS V14.01,2013-04-02 17:43:00,
2013-04-02 10:48:00,68.1,18.7,29.86,SE,131,5.0,12.0,15,0.00,,SKC,0.00,VWS V14.01,2013-04-02 17:48:00,
2013-04-02 10:53:00,68.5,17.5,29.86,SSE,147,8.0,15.0,14,0.00,,SKC,0.00,VWS V14.01,2013-04-02 17:53:00,
2013-04-02 10:59:00,68.4,19.0,29.85,SSW,207,4.0,15.0,15,0.00,,SKC,0.00,VWS V14.01,2013-04-02 17:59:00,
2013-04-02 11:04:00,68.7,17.6,29.85,SSE,163,8.0,11.0,14,0.00,,SKC,0.00,VWS V14.01,2013-04-02 18:04:00,
2013-04-02 11:09:00,69.2,19.6,29.85,South,191,4.0,11.0,15,0.00,,SKC,0.00,VWS V14.01,2013-04-02 18:09:00,
2013-04-02 11:14:00,69.2,18.0,29.85,SW,219,5.0,12.0,14,0.00,,SKC,0.00,VWS V14.01,2013-04-02 18:14:00,
2013-04-02 11:20:00,69.3,19.7,29.84,SSW,203,10.0,17.0,15,0.00,,SKC,0.00,VWS V14.01,2013-04-02 18:20:00,
2013-04-02 11:25:00,69.3,18.1,29.84,South,169,7.0,17.0,14,0.00,,SKC,0.00,VWS V14.01,2013-04-02 18:25:00,
2013-04-02 11:30:00,69.9,18.6,29.84,South,181,2.0,5.0,14,0.00,,SKC,0.00,VWS V14.01,2013-04-02 18:30:00,
2013-04-02 11:35:00,70.4,17.2,29.84,South,183,7.0,12.0,13,0.00,,SKC,0.00,VWS V14.01,2013-04-02 18:35:00,
2013-04-02 11:42:00,70.4,19.0,29.84,South,187,9.0,13.0,14,0.00,,SKC,0.00,VWS V14.01,2013-04-02 18:42:00,
2013-04-02 11:48:00,70.1,20.3,29.84,SSW,201,12.0,15.0,15,0.00,,SKC,0.00,VWS V14.01,2013-04-02 18:48:00,
2013-04-02 11:54:00,70.3,15.3,29.83,South,181,13.0,17.0,12,0.00,,SKC,0.00,VWS V14.01,2013-04-02 18:54:00,
2013-04-02 11:59:00,70.3,15.3,29.83,South,173,9.0,17.0,12,0.00,,SKC,0.00,VWS V14.01,2013-04-02 18:59:00,
2013-04-02 12:04:00,70.3,15.3,29.83,SSW,194,6.0,11.0,12,0.00,,SKC,0.00,VWS V14.01,2013-04-02 19:04:00,
2013-04-02 12:09:00,71.3,16.1,29.84,SSE,159,13.0,13.0,12,0.00,,SKC,0.00,VWS V14.01,2013-04-02 19:09:00,
2013-04-02 12:15:00,71.1,15.9,29.83,SSE,167,9.0,13.0,12,0.00,,SKC,0.00,VWS V14.01,2013-04-02 19:15:00,
2013-04-02 12:20:00,70.9,13.8,29.83,SSE,150,6.0,16.0,11,0.00,,SKC,0.00,VWS V14.01,2013-04-02 19:20:00,
2013-04-02 12:26:00,71.1,14.0,29.83,SSE,158,10.0,16.0,11,0.00,,SKC,0.00,VWS V14.01,2013-04-02 19:26:00,
2013-04-02 12:31:00,71.8,12.3,29.82,SE,145,12.0,12.0,10,0.00,,SKC,0.00,VWS V14.01,2013-04-02 19:31:00,
2013-04-02 12:37:00,72.1,14.7,29.82,SE,132,8.0,15.0,11,0.00,,SKC,0.00,VWS V14.01,2013-04-02 19:37:00,
2013-04-02 12:43:00,72.6,15.1,29.82,SSE,156,9.0,15.0,11,0.00,,SKC,0.00,VWS V14.01,2013-04-02 19:43:00,
2013-04-02 12:48:00,72.8,13.1,29.82,South,179,7.0,15.0,10,0.00,,SKC,0.00,VWS V14.01,2013-04-02 19:48:00,
2013-04-02 12:54:00,72.9,10.8,29.82,South,184,8.0,15.0,9,0.00,,SKC,0.00,VWS V14.01,2013-04-02 19:54:00,
2013-04-02 12:59:00,73.1,10.9,29.81,SSE,159,9.0,15.0,9,0.00,,SKC,0.00,VWS V14.01,2013-04-02 19:59:00,
2013-04-02 13:04:00,73.2,5.5,29.82,South,190,13.0,13.0,7,0.00,,SKC,0.00,VWS V14.01,2013-04-02 20:04:00,
2013-04-02 13:09:00,73.2,11.0,29.81,SSE,162,8.0,13.0,9,0.00,,SKC,0.00,VWS V14.01,2013-04-02 20:09:00,
2013-04-02 13:16:00,72.5,7.9,29.82,SE,132,9.0,13.0,8,0.00,,SKC,0.00,VWS V14.01,2013-04-02 20:16:00,
2013-04-02 13:21:00,73.0,8.2,29.81,South,173,16.0,16.0,8,0.00,,SKC,0.00,VWS V14.01,2013-04-02 20:21:00,
2013-04-02 13:28:00,73.1,5.4,29.81,South,179,7.0,16.0,7,0.00,,SKC,0.00,VWS V14.01,2013-04-02 20:28:00,
2013-04-02 13:35:00,73.1,2.1,29.81,South,191,6.0,8.0,6,0.00,,SKC,0.00,VWS V14.01,2013-04-02 20:35:00,
2013-04-02 13:40:00,73.2,5.5,29.81,South,172,6.0,12.0,7,0.00,,SKC,0.00,VWS V14.01,2013-04-02 20:40:00,
2013-04-02 13:45:00,73.4,5.6,29.80,SSE,152,7.0,12.0,7,0.00,,SKC,0.00,VWS V14.01,2013-04-02 20:45:00,
2013-04-02 13:50:00,73.3,5.5,29.80,SSE,156,7.0,15.0,7,0.00,,SKC,0.00,VWS V14.01,2013-04-02 20:50:00,
2013-04-02 13:55:00,73.4,2.3,29.80,SSE,155,13.0,15.0,6,0.00,,SKC,0.00,VWS V14.01,2013-04-02 20:55:00,
2013-04-02 14:01:00,73.3,-1.7,29.80,South,180,5.0,7.0,5,0.00,,SKC,0.00,VWS V14.01,2013-04-02 21:01:00,
2013-04-02 14:06:00,73.6,5.8,29.80,South,174,13.0,13.0,7,0.00,,SKC,0.00,VWS V14.01,2013-04-02 21:06:00,
2013-04-02 14:12:00,73.3,8.5,29.80,SSE,158,8.0,13.0,8,0.00,,SKC,0.00,VWS V14.01,2013-04-02 21:12:00,
2013-04-02 14:18:00,73.1,8.3,29.80,South,172,10.0,18.0,8,0.00,,SKC,0.00,VWS V14.01,2013-04-02 21:18:00,
2013-04-02 14:23:00,72.6,5.0,29.80,SE,145,8.0,19.0,7,0.00,,SKC,0.00,VWS V14.01,2013-04-02 21:23:00,
2013-04-02 14:28:00,73.5,8.6,29.79,SSE,158,10.0,19.0,8,0.00,,SKC,0.00,VWS V14.01,2013-04-02 21:28:00,
2013-04-02 14:33:00,73.6,13.7,29.79,SSE,156,17.0,17.0,10,0.00,,SKC,0.00,VWS V14.01,2013-04-02 21:33:00,
2013-04-02 14:38:00,73.4,11.2,29.79,ESE,117,9.0,17.0,9,0.00,,SKC,0.00,VWS V14.01,2013-04-02 21:38:00,
2013-04-02 14:44:00,73.5,8.6,29.79,SSE,167,7.0,17.0,8,0.00,,SKC,0.00,VWS V14.01,2013-04-02 21:44:00,
2013-04-02 14:49:00,73.5,8.6,29.79,SSE,162,11.0,17.0,8,0.00,,SKC,0.00,VWS V14.01,2013-04-02 21:49:00,
2013-04-02 14:55:00,72.5,10.5,29.79,SSE,153,6.0,17.0,9,0.00,,SKC,0.00,VWS V14.01,2013-04-02 21:55:00,
2013-04-02 15:00:00,73.1,8.3,29.79,SE,131,7.0,11.0,8,0.00,,SKC,0.00,VWS V14.01,2013-04-02 22:00:00,
2013-04-02 15:05:00,73.2,11.0,29.79,SE,143,7.0,14.0,9,0.00,,SKC,0.00,VWS V14.01,2013-04-02 22:05:00,
2013-04-02 15:10:00,73.0,8.2,29.79,SSE,153,12.0,14.0,8,0.00,,SKC,0.00,VWS V14.01,2013-04-02 22:10:00,
2013-04-02 15:15:00,73.2,11.0,29.79,ESE,119,5.0,14.0,9,0.00,,SKC,0.00,VWS V14.01,2013-04-02 22:15:00,
2013-04-02 15:20:00,73.3,8.5,29.79,South,177,11.0,14.0,8,0.00,,SKC,0.00,VWS V14.01,2013-04-02 22:20:00,
2013-04-02 15:26:00,73.4,11.2,29.79,South,174,8.0,14.0,9,0.00,,SKC,0.00,VWS V14.01,2013-04-02 22:26:00,
2013-04-02 15:31:00,73.1,8.3,29.79,South,179,8.0,13.0,8,0.00,,SKC,0.00,VWS V14.01,2013-04-02 22:31:00,
2013-04-02 15:36:00,72.9,8.2,29.79,SSE,153,10.0,13.0,8,0.00,,SKC,0.00,VWS V14.01,2013-04-02 22:36:00,
2013-04-02 15:42:00,72.7,5.1,29.79,South,170,7.0,16.0,7,0.00,,SKC,0.00,VWS V14.01,2013-04-02 22:42:00,
2013-04-02 15:48:00,72.8,8.1,29.79,ESE,103,6.0,16.0,8,0.00,,SKC,0.00,VWS V14.01,2013-04-02 22:48:00,
2013-04-02 15:54:00,72.7,10.6,29.79,SW,214,9.0,16.0,9,0.00,,SKC,0.00,VWS V14.01,2013-04-02 22:54:00,
2013-04-02 15:59:00,72.3,10.4,29.79,SSW,193,6.0,16.0,9,0.00,,SKC,0.00,VWS V14.01,2013-04-02 22:59:00,
2013-04-02 16:04:00,72.0,10.1,29.79,South,170,5.0,12.0,9,0.00,,SKC,0.00,VWS V14.01,2013-04-02 23:04:00,
2013-04-02 16:10:00,72.2,10.3,29.79,South,187,14.0,14.0,9,0.00,,SKC,0.00,VWS V14.01,2013-04-02 23:10:00,
2013-04-02 16:15:00,72.2,10.3,29.80,South,170,7.0,15.0,9,0.00,,SKC,0.00,VWS V14.01,2013-04-02 23:15:00,
2013-04-02 16:20:00,72.3,7.7,29.80,SSE,159,2.0,15.0,8,0.00,,SKC,0.00,VWS V14.01,2013-04-02 23:20:00,
2013-04-02 16:25:00,72.4,10.4,29.79,SSE,152,6.0,15.0,9,0.00,,SKC,0.00,VWS V14.01,2013-04-02 23:25:00,
2013-04-02 16:30:00,72.1,12.6,29.80,South,179,6.0,8.0,10,0.00,,SKC,0.00,VWS V14.01,2013-04-02 23:30:00,
2013-04-02 16:36:00,72.0,10.1,29.79,SE,134,3.0,12.0,9,0.00,,SKC,0.00,VWS V14.01,2013-04-02 23:36:00,
2013-04-02 16:42:00,72.1,12.6,29.80,South,177,10.0,12.0,10,0.00,,SKC,0.00,VWS V14.01,2013-04-02 23:42:00,
2013-04-02 16:47:00,72.2,10.3,29.80,SSE,148,4.0,12.0,9,0.00,,SKC,0.00,VWS V14.01,2013-04-02 23:47:00,
2013-04-02 16:52:00,72.4,12.8,29.80,SSW,202,8.0,12.0,10,0.00,,SKC,0.00,VWS V14.01,2013-04-02 23:52:00,
2013-04-02 16:57:00,72.3,12.7,29.80,SSW,202,9.0,12.0,10,0.00,,SKC,0.00,VWS V14.01,2013-04-02 23:57:00,
2013-04-02 17:03:00,71.8,12.3,29.80,South,173,4.0,11.0,10,0.00,,SKC,0.00,VWS V14.01,2013-04-03 00:03:00,
2013-04-02 17:08:00,70.8,13.7,29.80,South,186,6.0,14.0,11,0.00,,SKC,0.00,VWS V14.01,2013-04-03 00:08:00,
2013-04-02 17:14:00,70.9,13.8,29.80,SSE,162,13.0,14.0,11,0.00,,SKC,0.00,VWS V14.01,2013-04-03 00:14:00,
2013-04-02 17:19:00,70.5,11.3,29.80,SE,132,5.0,14.0,10,0.00,,SKC,0.00,VWS V14.01,2013-04-03 00:19:00,
2013-04-02 17:24:00,70.6,11.4,29.80,South,190,10.0,14.0,10,0.00,,SKC,0.00,VWS V14.01,2013-04-03 00:24:00,
2013-04-02 17:29:00,70.4,13.4,29.80,South,189,10.0,14.0,11,0.00,,SKC,0.00,VWS V14.01,2013-04-03 00:29:00,
2013-04-02 17:35:00,70.2,13.3,29.80,SSW,198,6.0,13.0,11,0.00,,SKC,0.00,VWS V14.01,2013-04-03 00:35:00,
2013-04-02 17:40:00,70.5,13.5,29.80,SSE,159,8.0,13.0,11,0.00,,SKC,0.00,VWS V14.01,2013-04-03 00:40:00,
2013-04-02 17:46:00,70.1,13.2,29.80,SE,143,9.0,13.0,11,0.00,,SKC,0.00,VWS V14.01,2013-04-03 00:46:00,
2013-04-02 17:51:00,70.0,13.1,29.80,SSE,155,16.0,16.0,11,0.00,,SKC,0.00,VWS V14.01,2013-04-03 00:51:00,
2013-04-02 17:57:00,69.9,13.0,29.80,SSE,159,5.0,16.0,11,0.00,,SKC,0.00,VWS V14.01,2013-04-03 00:57:00,
2013-04-02 18:02:00,69.9,13.0,29.81,South,176,6.0,6.0,11,0.00,,SKC,0.00,VWS V14.01,2013-04-03 01:02:00,
2013-04-02 18:08:00,69.6,14.8,29.81,SSW,211,10.0,10.0,12,0.00,,SKC,0.00,VWS V14.01,2013-04-03 01:08:00,
2013-04-02 18:13:00,69.1,14.4,29.81,South,187,5.0,10.0,12,0.00,,SKC,0.00,VWS V14.01,2013-04-03 01:13:00,
2013-04-02 18:18:00,68.7,14.1,29.82,SSE,167,5.0,10.0,12,0.00,,SKC,0.00,VWS V14.01,2013-04-03 01:18:00,
2013-04-02 18:23:00,68.4,15.7,29.82,South,189,3.0,10.0,13,0.00,,SKC,0.00,VWS V14.01,2013-04-03 01:23:00,
2013-04-02 18:28:00,68.0,15.4,29.82,South,183,4.0,10.0,13,0.00,,SKC,0.00,VWS V14.01,2013-04-03 01:28:00,
2013-04-02 18:34:00,67.6,15.0,29.83,SSW,210,5.0,7.0,13,0.00,,SKC,0.00,VWS V14.01,2013-04-03 01:34:00,
2013-04-02 18:39:00,67.1,14.6,29.83,SSW,198,4.0,7.0,13,0.00,,SKC,0.00,VWS V14.01,2013-04-03 01:39:00,
2013-04-02 18:44:00,66.7,16.0,29.83,South,172,1.0,8.0,14,0.00,,SKC,0.00,VWS V14.01,2013-04-03 01:44:00,
2013-04-02 18:49:00,66.1,15.6,29.83,South,188,1.0,8.0,14,0.00,,SKC,0.00,VWS V14.01,2013-04-03 01:49:00,
2013-04-02 18:54:00,65.6,15.1,29.83,South,174,3.0,8.0,14,0.00,,SKC,0.00,VWS V14.01,2013-04-03 01:54:00,
2013-04-02 18:59:00,65.4,16.6,29.83,South,188,2.0,8.0,15,0.00,,SKC,0.00,VWS V14.01,2013-04-03 01:59:00,
2013-04-02 19:05:00,65.0,16.3,29.83,South,191,5.0,5.0,15,0.00,,SKC,0.00,VWS V14.01,2013-04-03 02:05:00,
2013-04-02 19:10:00,65.0,14.7,29.83,SSE,165,6.0,6.0,14,0.00,,SKC,0.00,VWS V14.01,2013-04-03 02:10:00,
2013-04-02 19:15:00,65.1,16.3,29.83,South,174,3.0,7.0,15,0.00,,SKC,0.00,VWS V14.01,2013-04-03 02:15:00,
2013-04-02 19:20:00,64.8,16.1,29.83,SSE,167,2.0,7.0,15,0.00,,SKC,0.00,VWS V14.01,2013-04-03 02:20:00,
2013-04-02 19:25:00,64.3,15.7,29.84,SSE,167,2.0,7.0,15,0.00,,SKC,0.00,VWS V14.01,2013-04-03 02:25:00,
2013-04-02 19:30:00,63.6,15.1,29.83,South,177,1.0,2.0,15,0.00,,SKC,0.00,VWS V14.01,2013-04-03 02:30:00,
2013-04-02 19:36:00,63.0,16.1,29.84,South,177,0.0,2.0,16,0.00,,SKC,0.00,VWS V14.01,2013-04-03 02:36:00,
2013-04-02 19:41:00,62.2,15.5,29.84,South,177,0.0,2.0,16,0.00,,SKC,0.00,VWS V14.01,2013-04-03 02:41:00,
2013-04-02 19:47:00,61.0,15.9,29.84,South,177,0.0,2.0,17,0.00,,SKC,0.00,VWS V14.01,2013-04-03 02:47:00,
2013-04-02 19:54:00,60.2,15.2,29.84,South,177,0.0,2.0,17,0.00,,SKC,0.00,VWS V14.01,2013-04-03 02:54:00,
2013-04-02 19:59:00,59.8,14.9,29.84,South,177,0.0,2.0,17,0.00,,SKC,0.00,VWS V14.01,2013-04-03 02:59:00,
2013-04-02 20:04:00,58.5,16.4,29.85,SSE,153,0.0,1.0,19,0.00,,SKC,0.00,VWS V14.01,2013-04-03 03:04:00,
2013-04-02 20:12:00,57.5,16.8,29.85,SSE,153,0.0,1.0,20,0.00,,SKC,0.00,VWS V14.01,2013-04-03 03:12:00,
2013-04-02 20:17:00,56.8,18.4,29.85,West,278,2.0,3.0,22,0.00,,SKC,0.00,VWS V14.01,2013-04-03 03:17:00,
2013-04-02 20:23:00,57.1,19.7,29.86,WNW,288,0.0,3.0,23,0.00,,SKC,0.00,VWS V14.01,2013-04-03 03:23:00,
2013-04-02 20:28:00,56.7,17.2,29.86,SW,221,0.0,3.0,21,0.00,,SKC,0.00,VWS V14.01,2013-04-03 03:28:00,
2013-04-02 20:34:00,56.7,16.1,29.86,South,186,1.0,1.0,20,0.00,,SKC,0.00,VWS V14.01,2013-04-03 03:34:00,
2013-04-02 20:39:00,56.7,16.1,29.86,SE,136,0.0,1.0,20,0.00,,SKC,0.00,VWS V14.01,2013-04-03 03:39:00,
2013-04-02 20:45:00,56.0,16.6,29.86,SE,136,0.0,1.0,21,0.00,,SKC,0.00,VWS V14.01,2013-04-03 03:45:00,
2013-04-02 20:50:00,54.9,15.7,29.87,SE,136,0.0,1.0,21,0.00,,SKC,0.00,VWS V14.01,2013-04-03 03:50:00,
2013-04-02 20:55:00,54.7,16.6,29.87,SE,136,0.0,1.0,22,0.00,,SKC,0.00,VWS V14.01,2013-04-03 03:55:00,
2013-04-02 21:00:00,54.1,16.1,29.87,SE,136,0.0,0.0,22,0.00,,SKC,0.00,VWS V14.01,2013-04-03 04:00:00,
2013-04-02 21:02:00,53.8,16.9,29.87,SE,136,0.0,0.0,23,0.00,,SKC,0.00,VWS V14.01,2013-04-03 04:02:00,
2013-04-02 21:03:00,53.7,16.8,29.87,ESE,115,2.0,2.0,23,0.00,,SKC,0.00,VWS V14.01,2013-04-03 04:03:00,
2013-04-02 21:06:00,53.8,16.9,29.87,ESE,115,2.0,2.0,23,0.00,,SKC,0.00,VWS V14.01,2013-04-03 04:06:00,
2013-04-02 21:11:00,53.4,19.4,29.88,ESE,115,1.0,2.0,26,0.00,,SKC,0.00,VWS V14.01,2013-04-03 04:11:00,
2013-04-02 21:16:00,52.8,21.4,29.88,NNW,328,0.0,2.0,29,0.00,,SKC,0.00,VWS V14.01,2013-04-03 04:16:00,
2013-04-02 21:21:00,51.9,19.8,29.88,NNW,333,2.0,2.0,28,0.00,,SKC,0.00,VWS V14.01,2013-04-03 04:21:00,
2013-04-02 21:26:00,52.7,17.9,29.88,North,352,0.0,2.0,25,0.00,,SKC,0.00,VWS V14.01,2013-04-03 04:26:00,
2013-04-02 21:31:00,52.9,19.0,29.88,NE,35,0.0,2.0,26,0.00,,SKC,0.00,VWS V14.01,2013-04-03 04:31:00,
2013-04-02 21:36:00,52.5,17.7,29.89,NE,35,0.0,2.0,25,0.00,,SKC,0.00,VWS V14.01,2013-04-03 04:36:00,
2013-04-02 21:41:00,51.5,17.8,29.89,NE,39,0.0,2.0,26,0.00,,SKC,0.00,VWS V14.01,2013-04-03 04:41:00,
2013-04-02 21:47:00,50.6,17.0,29.89,NE,38,0.0,2.0,26,0.00,,SKC,0.00,VWS V14.01,2013-04-03 04:47:00,
2013-04-02 21:52:00,49.9,18.1,29.89,NE,38,1.0,2.0,28,0.00,,SKC,0.00,VWS V14.01,2013-04-03 04:52:00,
2013-04-02 21:57:00,49.6,17.9,29.89,NE,38,0.0,2.0,28,0.00,,SKC,0.00,VWS V14.01,2013-04-03 04:57:00,
2013-04-02 22:02:00,48.9,17.2,29.90,NE,37,0.0,1.0,28,0.00,,SKC,0.00,VWS V14.01,2013-04-03 05:02:00,
2013-04-02 22:08:00,48.4,17.6,29.90,NE,37,0.0,1.0,29,0.00,,SKC,0.00,VWS V14.01,2013-04-03 05:08:00,
2013-04-02 22:13:00,48.1,18.9,29.90,NE,37,0.0,1.0,31,0.00,,SKC,0.00,VWS V14.01,2013-04-03 05:13:00,
2013-04-02 22:18:00,47.7,18.6,29.90,NE,37,0.0,1.0,31,0.00,,SKC,0.00,VWS V14.01,2013-04-03 05:18:00,
2013-04-02 22:23:00,47.3,18.2,29.90,NE,37,0.0,1.0,31,0.00,,SKC,0.00,VWS V14.01,2013-04-03 05:23:00,
2013-04-02 22:28:00,46.8,17.0,29.90,NE,37,0.0,1.0,30,0.00,,SKC,0.00,VWS V14.01,2013-04-03 05:28:00,
2013-04-02 22:33:00,46.2,16.5,29.91,NE,37,0.0,0.0,30,0.00,,SKC,0.00,VWS V14.01,2013-04-03 05:33:00,
2013-04-02 22:39:00,45.9,17.0,29.91,NE,37,0.0,1.0,31,0.00,,SKC,0.00,VWS V14.01,2013-04-03 05:39:00,
2013-04-02 22:44:00,45.5,15.9,29.91,NE,37,0.0,1.0,30,0.00,,SKC,0.00,VWS V14.01,2013-04-03 05:44:00,
2013-04-02 22:49:00,44.9,15.4,29.91,NE,37,0.0,1.0,30,0.00,,SKC,0.00,VWS V14.01,2013-04-03 05:49:00,
2013-04-02 22:54:00,44.6,15.1,29.91,NE,37,2.0,2.0,30,0.00,,SKC,0.00,VWS V14.01,2013-04-03 05:54:00,
2013-04-02 22:59:00,44.6,16.6,29.91,NW,318,0.0,2.0,32,0.00,,SKC,0.00,VWS V14.01,2013-04-03 05:59:00,
2013-04-02 23:04:00,44.6,18.0,29.91,NW,318,1.0,1.0,34,0.00,,SKC,0.00,VWS V14.01,2013-04-03 06:04:00,
2013-04-02 23:09:00,44.4,21.0,29.91,NW,317,0.0,1.0,39,0.00,,SKC,0.00,VWS V14.01,2013-04-03 06:09:00,
2013-04-02 23:15:00,44.3,19.7,29.91,NW,318,0.0,1.0,37,0.00,,SKC,0.00,VWS V14.01,2013-04-03 06:15:00,
2013-04-02 23:20:00,44.1,20.1,29.91,NW,315,0.0,2.0,38,0.00,,SKC,0.00,VWS V14.01,2013-04-03 06:20:00,
2013-04-02 23:25:00,44.1,18.9,29.91,WNW,296,0.0,2.0,36,0.00,,SKC,0.00,VWS V14.01,2013-04-03 06:25:00,
2013-04-02 23:30:00,44.1,18.9,29.91,WNW,296,0.0,0.0,36,0.00,,SKC,0.00,VWS V14.01,2013-04-03 06:30:00,
2013-04-02 23:35:00,43.8,18.6,29.91,WNW,296,0.0,0.0,36,0.00,,SKC,0.00,VWS V14.01,2013-04-03 06:35:00,
2013-04-02 23:40:00,43.4,18.2,29.91,WNW,297,1.0,1.0,36,0.00,,SKC,0.00,VWS V14.01,2013-04-03 06:40:00,
2013-04-02 23:45:00,43.3,18.2,29.91,WNW,284,2.0,2.0,36,0.00,,SKC,0.00,VWS V14.01,2013-04-03 06:45:00,
2013-04-02 23:50:00,43.7,17.9,29.91,WNW,295,2.0,3.0,35,0.00,,SKC,0.00,VWS V14.01,2013-04-03 06:50:00,
2013-04-02 23:55:00,44.1,18.9,29.91,WNW,283,0.0,3.0,36,0.00,,SKC,0.00,VWS V14.01,2013-04-03 06:55:00,